This demonstration page uses our WeatherBlox Daily Observations layout. Learn more.

Left ArrowRight Arrow

Hourly Observations for April 27, 2016

Temp ( °F °C ) Dew Point ( °F °C ) Humidity (%) Winds ( mph kmh ) Pressure ( in mb ) Visibility ( mi km ) Precip ( " mm )
12:51 am 00:51 Clear 52 11.1 22 -5.6 31 31 WNW 7 11 29.82 1010 10 16 0.00 0.00
1:51 am 01:51 Clear 51 10.6 22 -5.6 32 32 WNW 6 9 29.80 1009 10 16 0.00 0.00
2:51 am 02:51 Clear 47 8.3 22 -5.6 37 37 E 6 9 29.81 1009 10 16 0.00 0.00
3:51 am 03:51 Clear 48 8.9 22 -5.6 36 36 S 5 7 29.81 1009 10 16 0.00 0.00
4:51 am 04:51 Clear 44 6.7 21 -6.1 40 40 Calm 29.82 1010 10 16 0.00 0.00
5:51 am 05:51 Sunny 44 6.7 21 -6.1 40 40 ESE 6 9 29.84 1011 10 16 0.00 0.00
6:51 am 06:51 Sunny 51 10.6 23 -5 33 33 ESE 5 7 29.83 1010 10 16 0.00 0.00
7:51 am 07:51 Sunny 55 12.8 24 -4.4 30 30 ESE 6 9 29.83 1010 10 16 0.00 0.00
8:51 am 08:51 Sunny 62 16.7 25 -3.9 24 24 VRB 5 7 29.81 1010 10 16 0.00 0.00
9:51 am 09:51 Sunny 65 18.3 25 -3.9 22 22 Calm 29.80 1009 10 16 0.00 0.00
10:51 am 10:51 Sunny 68 20 25 -3.9 20 20 VRB 5 7 29.78 1008 10 16 0.00 0.00
11:51 am 11:51 Sunny 71 21.7 24 -4.4 17 17 VRB 5 7 29.75 1007 10 16 0.00 0.00
12:51 pm 12:51 Sunny 73 22.8 24 -4.4 16 16 VRB 3 6 29.71 1006 10 16 0.00 0.00
1:51 pm 13:51 Sunny 74 23.3 23 -5 15 15 undefined N/A 29.67 1005 10 16 0.00 0.00
2:51 pm 14:51 Sunny 75 23.9 21 -6.1 13 13 Calm 29.64 1004 10 16 0.00 0.00
3:51 pm 15:51 Sunny 77 25 21 -6.1 12 12 WNW 7 11 29.60 1003 10 16 0.00 0.00
4:51 pm 16:51 Sunny 78 25.6 20 -6.7 11 11 NNW 9 15 29.60 1002 10 16 0.00 0.00
5:51 pm 17:51 Sunny 75 23.9 21 -6.1 13 13 NW 13 20 29.59 1002 10 16 0.00 0.00
6:51 pm 18:51 Sunny 73 22.8 18 -7.8 12 12 NW 14 22 29.59 1002 10 16 0.00 0.00
7:51 pm 19:51 Clear 71 21.7 20 -6.7 14 14 NW 10 17 29.60 1002 10 16 0.00 0.00
8:51 pm 20:51 Clear 70 21.1 19 -7.2 14 14 NW 12 19 29.59 1002 10 16 0.00 0.00
9:51 pm 21:51 Clear 68 20 20 -6.7 16 16 Calm 29.60 1002 10 16 0.00 0.00
10:51 pm 22:51 Clear 67 19.4 20 -6.7 17 17 NNW 7 11 29.60 1002 10 16 0.00 0.00
11:51 pm 23:51 Clear 68 20 20 -6.7 16 16 Calm 29.59 1002 10 16 0.00 0.00

Powered by AerisWeather